Tracking 25707 objects as of 29-Jun-2022
HD Live streaming from Space Station
objects crossing your sky now

STARLINK-3923

Track STARLINK-3923 now!
10-day predictions
STARLINK-3923 is classified as:


NORAD ID: 52489
Int'l Code: 2022-049AQ
Perigee: 421.5 km
Apogee: 423.5 km
Inclination: 53.2 °
Period: 92.9 minutes
Semi major axis: 6793 km
RCS: Unknown
Launch date: May 6, 2022
Source: United States (US)
Launch site: AIR FORCE EASTERN TEST RANGE (AFETR)
aabbcc
Your satellite tracking list
Your tracking list is empty




NASA's NSSDC Master Catalog

Two Line Element Set (TLE):
1 52489U 22049AQ  22180.58334491 -.00652959  00000-0 -12231-1 0  9993
2 52489  53.2177 359.0710 0001467  51.4535 235.5827 15.50465979  1308
Source of the keplerian elements: AFSPC